Location: Ku?niki
(51.4449°N, 17.8974°E)
Time: 07:27:32
(UTC+00:00)

Terra - Pass Details

Date: 18 September 2020
Orbit: 701 x 703 km, 98.2° (Epoch: 22 October)

Event Time Altitude Azimuth Distance (km) Brightness Sun altitude
Exits shadow 18:40:17 12° 60° (ENE) 2,064 3.9 -16.7°
Maximum altitude 18:40:59 12° 51° (NE) 2,043 4.0 -16.8°
Drops below altitude 10° 18:42:45 10° 29° (NNE) 2,183 4.3 -17.0°
Sets 18:46:26 0° 359° (N) 3,106 5.5 -17.5°
